FW5474 Midway GA US current weather conditions

sailwx.info

Wind from 247 at 2 knots gusting 4

Air temperature 7.8° C
Dewpoint 6.9° C

Last reported at 2019-Nov-21 05:01 UTC.
Time now 2019-Nov-21 05:49 UTC

Location: N 31°47' W 081°26'.
View on Google Maps.

See reports from other nearby stations

  
Tides and Currents Weather Stations Pressure Air Temp Water Temp Dewpoint Dewpoint Depression Visibility Wind Speed Wind Dir Waves Ship Positions
date/time (UTC)wind fromknots sea level pressurealtimeterstation pressurevisibilityair tempwater tempwave heightnotes
2019-Nov-21 05:01 247 2 gusting 4 7.8
2019-Nov-21 04:55 247 3 gusting 4 7.8
2019-Nov-21 04:50 247 2 gusting 4 7.8
2019-Nov-21 04:45 247 3 gusting 4 7.8
2019-Nov-21 04:40 247 2 gusting 4 7.8
2019-Nov-21 04:35 247 3 gusting 5 7.8
2019-Nov-21 04:31 247 3 gusting 5 7.8
2019-Nov-21 04:25 247 3 gusting 4 7.8
2019-Nov-21 04:20 248 3 gusting 4 7.2
2019-Nov-21 04:15 248 2 gusting 3 7.2
2019-Nov-21 04:10 248 2 gusting 4 7.2
2019-Nov-21 04:05 248 3 gusting 4 7.2
2019-Nov-21 04:00 248 1 gusting 2 7.2
2019-Nov-21 03:55 248 1 gusting 2 7.2
2019-Nov-21 03:50 248 0 gusting 1 7.2
2019-Nov-21 03:46 248 7.2
2019-Nov-21 03:40 248 0 gusting 1 7.2
2019-Nov-21 03:35 248 7.8
2019-Nov-21 03:31 248 0 gusting 2 7.8
2019-Nov-21 03:25 248 1 gusting 2 7.8
2019-Nov-21 03:20 248 0 gusting 2 7.8
2019-Nov-21 03:16 248 1 gusting 2 7.8
2019-Nov-21 03:10 248 1 gusting 1 7.8
2019-Nov-21 03:05 248 0 gusting 1 7.8
2019-Nov-21 03:01 248 0 gusting 1 8.3
2019-Nov-21 02:55 248 0 gusting 1 8.3
2019-Nov-21 02:50 248 0 gusting 1 8.3
2019-Nov-21 02:45 248 0 gusting 1 8.3
2019-Nov-21 02:40 248 0 gusting 1 8.3
2019-Nov-21 02:35 248 0 gusting 1 8.3
2019-Nov-21 02:31 248 0 gusting 2 8.3
2019-Nov-21 02:25 248 1 gusting 2 8.3
2019-Nov-21 02:20 248 1 gusting 2 8.3
2019-Nov-21 02:16 248 0 gusting 2 8.9
2019-Nov-21 02:10 248 0 gusting 1 8.9
2019-Nov-21 02:05 248 8.9
2019-Nov-21 02:02 248 9.4
2019-Nov-21 01:55 248 0 gusting 2 9.4
2019-Nov-21 01:50 248 0 gusting 2 9.4
2019-Nov-21 01:46 248 1 gusting 2 9.4
2019-Nov-21 01:40 248 1 gusting 2 8.9
2019-Nov-21 01:35 248 1 gusting 2 8.9
2019-Nov-21 01:30 248 0 gusting 1 8.9
2019-Nov-21 01:25 248 0 gusting 1 8.9
2019-Nov-21 01:20 248 8.9
2019-Nov-21 01:15 248 8.9
2019-Nov-21 01:10 248 9.4
2019-Nov-21 01:05 248 9.4
2019-Nov-21 01:01 248 9.4
2019-Nov-21 00:55 248 9.4
2019-Nov-21 00:50 248 0 gusting 1 10.0
2019-Nov-21 00:40 248 0 gusting 2 10.0
2019-Nov-21 00:35 248 1 gusting 2 10.6
2019-Nov-21 00:25 248 2 gusting 3 10.6
2019-Nov-21 00:20 248 2 gusting 3 11.1
2019-Nov-21 00:10 248 1 gusting 3 11.1
2019-Nov-21 00:05 248 2 gusting 3 11.7
2019-Nov-20 23:55 248 2 gusting 4 11.7
2019-Nov-20 23:50 248 2 gusting 3 12.2
2019-Nov-20 23:40 248 0 gusting 2 12.8
2019-Nov-20 23:35 248 1 gusting 3 12.8
2019-Nov-20 23:25 248 1 gusting 3 12.8
2019-Nov-20 23:20 248 1 gusting 4 12.8
2019-Nov-20 23:10 248 1 gusting 4 13.3
2019-Nov-20 23:05 248 2 gusting 4 13.3
2019-Nov-20 23:00 248 1 gusting 4 13.9
2019-Nov-20 22:55 247 1 gusting 4 14.4
2019-Nov-20 22:50 247 1 gusting 3 14.4
2019-Nov-20 22:45 247 0 gusting 2 14.4
2019-Nov-20 22:40 247 0 gusting 3 14.4
2019-Nov-20 22:35 247 1 gusting 3 15.0
2019-Nov-20 22:25 242 1 gusting 3 15.6
2019-Nov-20 22:20 195 15.6
2019-Nov-20 22:10 193 1 gusting 3 16.7
2019-Nov-20 22:05 192 1 gusting 3 16.7
2019-Nov-20 22:00 199 0 gusting 4 16.7
2019-Nov-20 21:55 201 2 gusting 4 16.7
2019-Nov-20 21:50 199 2 gusting 4 17.2
2019-Nov-20 21:41 193 2 gusting 4 17.2
2019-Nov-20 21:36 190 2 gusting 5 17.2
2019-Nov-20 21:31 184 2 gusting 6 17.2
2019-Nov-20 21:25 197 3 gusting 5 17.2
2019-Nov-20 21:20 189 2 gusting 6 17.8
2019-Nov-20 21:17 222 2 gusting 6 17.8
2019-Nov-20 21:11 191 4 gusting 6 17.8
2019-Nov-20 21:06 208 3 gusting 7 17.8
2019-Nov-20 21:02 213 5 gusting 7 17.8
2019-Nov-20 20:56 189 3 gusting 6 17.8
2019-Nov-20 20:50 244 1 gusting 5 17.8
2019-Nov-20 20:47 196 2 gusting 6 17.8
2019-Nov-20 20:40 239 2 gusting 7 17.8
2019-Nov-20 20:35 240 3 gusting 8 17.8
2019-Nov-20 20:31 196 5 gusting 8 17.8
2019-Nov-20 20:25 201 2 gusting 5 17.8
2019-Nov-20 20:20 153 2 gusting 7 17.8
2019-Nov-20 20:16 188 3 gusting 7 17.8
2019-Nov-20 20:10 224 3 gusting 7 17.8
2019-Nov-20 20:06 238 4 gusting 6 17.8
2019-Nov-20 20:02 239 2 gusting 5 17.8
2019-Nov-20 19:55 151 1 gusting 6 17.8
2019-Nov-20 19:50 208 3 gusting 6 17.8
2019-Nov-20 19:46 148 2 gusting 7 17.8
2019-Nov-20 19:40 163 5 gusting 7 17.8
2019-Nov-20 19:35 185 2 gusting 10 17.8
2019-Nov-20 19:31 213 2 gusting 10 17.8
2019-Nov-20 19:25 235 6 gusting 8 17.8
2019-Nov-20 19:21 103 0 gusting 6 17.8
2019-Nov-20 19:16 247 0 gusting 4 17.8
2019-Nov-20 19:10 247 2 gusting 6 17.8
2019-Nov-20 19:05 185 1 gusting 7 17.8
2019-Nov-20 19:02 199 3 gusting 8 17.2
2019-Nov-20 18:55 195 6 gusting 8 17.2
2019-Nov-20 18:50 176 4 gusting 7 17.8
2019-Nov-20 18:47 129 3 gusting 9 17.8
2019-Nov-20 18:40 208 3 gusting 5 17.8
2019-Nov-20 18:35 169 1 gusting 12 17.8
2019-Nov-20 18:31 208 4 gusting 8 17.8
2019-Nov-20 18:25 251 3 gusting 7 17.2
2019-Nov-20 18:21 289 4 gusting 7 17.2
2019-Nov-20 18:17 247 0 gusting 7 17.2
2019-Nov-20 18:10 180 4 gusting 7 17.2
2019-Nov-20 18:05 257 4 gusting 7 17.2
2019-Nov-20 18:01 197 4 gusting 7 17.2
2019-Nov-20 17:55 208 1 gusting 6 17.2
2019-Nov-20 17:50 193 2 gusting 8 17.2
2019-Nov-20 17:46 172 4 gusting 9 17.2
2019-Nov-20 17:40 155 5 gusting 9 17.2
2019-Nov-20 17:35 251 1 gusting 6 17.2
2019-Nov-20 17:31 239 2 gusting 7 17.2
2019-Nov-20 17:25 244 3 gusting 9 16.7
2019-Nov-20 17:16 218 3 gusting 7 16.7
2019-Nov-20 17:10 253 3 gusting 10 16.7
2019-Nov-20 17:05 222 5 gusting 10 16.7
2019-Nov-20 17:01 253 4 gusting 10 16.7
2019-Nov-20 16:55 218 5 gusting 11 16.1
2019-Nov-20 16:50 192 6 gusting 11 16.1
2019-Nov-20 16:46 180 7 gusting 11 16.1
2019-Nov-20 16:40 178 7 gusting 11 16.1
2019-Nov-20 16:35 197 6 gusting 10 16.1
2019-Nov-20 16:31 249 6 gusting 10 16.1
2019-Nov-20 16:25 231 6 gusting 9 16.1
2019-Nov-20 16:20 253 3 gusting 10 15.6
2019-Nov-20 16:16 213 6 gusting 10 15.6
2019-Nov-20 16:10 232 4 gusting 7 15.6
2019-Nov-20 16:05 180 4 gusting 8 15.6
2019-Nov-20 16:00 193 4 gusting 9 15.0
2019-Nov-20 15:55 190 4 gusting 11 15.0
2019-Nov-20 15:50 218 7 gusting 11 15.0
2019-Nov-20 15:46 178 1 gusting 8 15.0
2019-Nov-20 15:40 198 4 gusting 8 15.0
2019-Nov-20 15:35 201 2 gusting 8 15.0
2019-Nov-20 15:31 187 3 gusting 9 14.4
2019-Nov-20 15:25 193 6 gusting 9 14.4
2019-Nov-20 15:20 208 3 gusting 10 13.9
2019-Nov-20 15:15 237 5 gusting 11 13.3
2019-Nov-20 15:10 213 5 gusting 10 13.3
2019-Nov-20 15:05 188 6 gusting 11 13.3
2019-Nov-20 14:55 174 5 gusting 10 12.8
2019-Nov-20 14:50 208 6 gusting 9 12.8
2019-Nov-20 14:40 175 7 gusting 11 12.2
2019-Nov-20 14:35 165 5 gusting 12 12.2
2019-Nov-20 14:30 230 8 gusting 12 12.2
2019-Nov-20 14:25 199 6 gusting 11 12.2
2019-Nov-20 14:20 196 7 gusting 11 11.7
2019-Nov-20 14:15 176 6 gusting 9 11.7
2019-Nov-20 14:10 178 4 gusting 7 11.1
2019-Nov-20 14:05 180 4 gusting 7 11.1
2019-Nov-20 14:00 169 4 gusting 7 10.6
2019-Nov-20 13:50 180 3 gusting 10 10.0
2019-Nov-20 13:46 134 2 gusting 8 10.0
2019-Nov-20 13:41 160 5 gusting 8 9.4
2019-Nov-20 13:36 186 4 gusting 8 9.4
2019-Nov-20 13:32 162 4 gusting 9 8.9
2019-Nov-20 13:25 173 5 gusting 9 8.9
2019-Nov-20 13:21 152 5 gusting 8 8.3
2019-Nov-20 13:16 135 2 gusting 7 8.3
2019-Nov-20 13:05 174 3 gusting 7 7.8
2019-Nov-20 13:01 149 3 gusting 7 7.8
2019-Nov-20 12:55 148 4 gusting 7 7.2
2019-Nov-20 12:50 131 4 gusting 8 7.2
2019-Nov-20 12:46 141 4 gusting 8 7.2
2019-Nov-20 12:40 138 4 gusting 7 6.7
2019-Nov-20 12:35 122 5 gusting 6 6.7
2019-Nov-20 12:31 143 3 gusting 6 6.7
2019-Nov-20 12:25 128 4 gusting 6 6.7
2019-Nov-20 12:20 124 4 gusting 7 6.7
2019-Nov-20 12:16 145 4 gusting 6 6.7
2019-Nov-20 12:10 125 5 gusting 6 6.7
2019-Nov-20 12:05 121 5 gusting 6 6.7
2019-Nov-20 12:01 130 4 gusting 6 6.7
2019-Nov-20 11:55 151 4 gusting 6 6.7
2019-Nov-20 11:50 142 4 gusting 6 6.7
2019-Nov-20 11:46 131 4 gusting 6 6.7
2019-Nov-20 11:40 141 4 gusting 7 6.7
2019-Nov-20 11:35 131 5 gusting 9 6.7
2019-Nov-20 11:31 133 5 gusting 9 6.7
2019-Nov-20 11:25 139 5 gusting 7 6.7
2019-Nov-20 11:20 130 5 gusting 8 6.7
2019-Nov-20 11:16 132 5 gusting 8 6.7
2019-Nov-20 11:10 134 5 gusting 8 6.7
2019-Nov-20 11:05 136 6 gusting 8 6.7
2019-Nov-20 11:01 160 6 gusting 9 6.7
2019-Nov-20 10:55 134 5 gusting 9 6.7
2019-Nov-20 10:50 132 5 gusting 7 6.7
2019-Nov-20 10:45 148 5 gusting 8 6.7
2019-Nov-20 10:40 156 5 gusting 8 6.7
2019-Nov-20 10:35 122 4 gusting 7 6.7
2019-Nov-20 10:30 143 4 gusting 6 6.7
2019-Nov-20 10:25 110 4 gusting 6 6.7
2019-Nov-20 10:20 120 6 gusting 6 6.7
2019-Nov-20 10:15 118 5 gusting 6 6.7
2019-Nov-20 10:10 107 4 gusting 6 6.7
2019-Nov-20 10:05 125 4 gusting 6 6.7
2019-Nov-20 10:00 099 4 gusting 6 6.7
2019-Nov-20 09:55 117 3 gusting 6 6.7
2019-Nov-20 09:50 117 4 gusting 6 6.7
2019-Nov-20 09:45 118 3 gusting 6 6.7
2019-Nov-20 09:40 124 2 gusting 6 6.7
2019-Nov-20 09:35 114 4 gusting 7 7.2
2019-Nov-20 09:25 118 3 gusting 6 7.2
2019-Nov-20 09:16 122 4 gusting 8 7.2
2019-Nov-20 09:10 108 6 gusting 8 7.2
2019-Nov-20 09:05 124 6 gusting 7 7.2
2019-Nov-20 09:00 097 5 gusting 7 7.2
2019-Nov-20 08:55 116 5 gusting 7 7.2
2019-Nov-20 08:50 112 5 gusting 7 7.2
2019-Nov-20 08:40 099 5 gusting 8 7.2
2019-Nov-20 08:35 112 5 gusting 8 7.2
2019-Nov-20 08:25 117 5 gusting 7 7.2
2019-Nov-20 08:20 114 3 gusting 7 7.2
2019-Nov-20 08:15 097 4 gusting 7 7.2
2019-Nov-20 08:10 105 5 gusting 7 7.2
2019-Nov-20 08:05 083 4 gusting 7 7.2
2019-Nov-20 08:00 089 4 gusting 7 7.2
2019-Nov-20 07:55 097 4 gusting 7 7.2
2019-Nov-20 07:50 106 5 gusting 6 7.2
2019-Nov-20 07:45 097 5 gusting 7 7.2
2019-Nov-20 07:35 100 3 gusting 6 7.8
2019-Nov-20 07:32 089 4 gusting 7 7.8
2019-Nov-20 07:25 096 5 gusting 7 7.8
2019-Nov-20 07:21 101 4 gusting 8 7.8
2019-Nov-20 07:17 098 4 gusting 8 7.8
2019-Nov-20 07:11 094 4 gusting 7 7.8
2019-Nov-20 07:05 084 4 gusting 7 7.8
2019-Nov-20 07:02 087 4 gusting 7 7.8
2019-Nov-20 06:55 087 4 gusting 6 8.3
2019-Nov-20 06:50 076 4 gusting 9 8.3
2019-Nov-20 06:47 095 4 gusting 9 8.3
2019-Nov-20 06:41 076 4 gusting 7 8.3
2019-Nov-20 06:35 088 4 gusting 7 8.3
2019-Nov-20 06:31 104 4 gusting 7 8.3
2019-Nov-20 06:25 108 3 gusting 7 8.3
2019-Nov-20 06:20 093 4 gusting 7 8.3
2019-Nov-20 06:16 099 4 gusting 6 8.3
2019-Nov-20 06:10 103 4 gusting 7 8.3
2019-Nov-20 06:05 091 4 gusting 7 8.3
2019-Nov-20 06:01 097 5 gusting 7 8.3
2019-Nov-20 05:55 099 4 gusting 7 8.3
2019-Nov-20 05:50 113 3 gusting 7 8.9
2019-Nov-20 05:46 094 4 gusting 7 8.9
2019-Nov-20 05:40 098 4 gusting 7 8.9
2019-Nov-20 05:35 100 3 gusting 6 8.9
2019-Nov-20 05:25 094 4 gusting 7 8.9
2019-Nov-20 05:20 091 5 gusting 8 8.9
2019-Nov-20 05:16 120 5 gusting 8 8.9
2019-Nov-20 05:10 089 5 gusting 8 8.9
2019-Nov-20 05:05 091 5 gusting 7 8.9
2019-Nov-20 05:01 101 4 gusting 9 8.9
2019-Nov-20 04:55 099 5 gusting 9 8.9
2019-Nov-20 04:50 087 5 gusting 6 8.9
2019-Nov-20 04:46 097 3 gusting 6 8.9
2019-Nov-20 04:40 107 3 gusting 8 8.9
2019-Nov-20 04:35 087 3 gusting 7 8.9
2019-Nov-20 04:31 092 3 gusting 6 8.3
2019-Nov-20 04:25 085 3 gusting 6 8.9
2019-Nov-20 04:20 079 3 gusting 6 8.9
2019-Nov-20 04:16 088 3 gusting 6 8.9
2019-Nov-20 04:10 092 2 gusting 7 8.9
2019-Nov-20 04:05 088 3 gusting 7 8.9
2019-Nov-20 04:01 084 4 gusting 7 8.9
2019-Nov-20 03:55 082 3 gusting 7 8.9
2019-Nov-20 03:50 080 3 gusting 6 8.9
2019-Nov-20 03:46 089 3 gusting 6 8.9
2019-Nov-20 03:40 090 2 gusting 5 8.9
2019-Nov-20 03:35 085 3 gusting 6 9.4
2019-Nov-20 03:32 086 3 gusting 6 9.4
2019-Nov-20 03:25 087 2 gusting 6 9.4
2019-Nov-20 03:20 079 3 gusting 6 9.4
2019-Nov-20 03:16 070 2 gusting 5 9.4
2019-Nov-20 03:10 091 2 gusting 5 9.4
2019-Nov-20 03:05 088 2 gusting 5 9.4
2019-Nov-20 03:02 089 2 gusting 4 9.4
2019-Nov-20 02:55 092 2 gusting 6 9.4
2019-Nov-20 02:50 078 3 gusting 6 10.0
2019-Nov-20 02:46 092 2 gusting 6 10.0
2019-Nov-20 02:40 094 4 gusting 6 10.0
2019-Nov-20 02:35 089 4 gusting 7 10.0
2019-Nov-20 02:31 093 4 gusting 7 10.0
2019-Nov-20 02:25 101 3 gusting 6 10.0
2019-Nov-20 02:20 082 4 gusting 6 10.0
2019-Nov-20 02:16 085 4 gusting 6 10.0
2019-Nov-20 02:10 093 4 gusting 6 10.0
2019-Nov-20 02:05 095 3 gusting 6 10.0
2019-Nov-20 02:00 091 4 gusting 6 10.0
2019-Nov-20 01:55 095 4 gusting 6 10.0
2019-Nov-20 01:50 094 4 gusting 6 10.6
2019-Nov-20 01:46 099 5 gusting 6 10.6
2019-Nov-20 01:40 115 5 gusting 6 10.6
2019-Nov-20 01:35 095 4 gusting 7 10.6
2019-Nov-20 01:31 102 4 gusting 7 10.6
2019-Nov-20 01:25 101 4 gusting 6 10.6
2019-Nov-20 01:20 100 4 gusting 7 10.6
2019-Nov-20 01:15 081 5 gusting 7 10.6
2019-Nov-20 01:10 108 5 gusting 7 10.6
2019-Nov-20 01:05 082 4 gusting 6 11.1
2019-Nov-20 01:00 097 3 gusting 6 11.1
2019-Nov-20 00:55 100 3 gusting 6 11.1
2019-Nov-20 00:50 103 4 gusting 6 11.1
2019-Nov-20 00:45 090 4 gusting 6 11.1
2019-Nov-20 00:40 104 4 gusting 6 11.7
2019-Nov-20 00:35 093 3 gusting 6 11.7
2019-Nov-20 00:25 108 3 gusting 6 11.7
2019-Nov-20 00:15 103 4 gusting 6 12.2
2019-Nov-20 00:10 097 2 gusting 6 12.2
2019-Nov-20 00:05 107 4 gusting 6 12.2
2019-Nov-20 00:00 105 3 gusting 6 12.8
2019-Nov-19 23:50 120 3 gusting 6 12.8
2019-Nov-19 23:45 127 4 gusting 8 12.8
2019-Nov-19 23:40 106 6 gusting 7 12.8
2019-Nov-19 23:35 118 5 gusting 7 12.8
2019-Nov-19 23:25 109 4 gusting 6 12.8
2019-Nov-19 23:20 104 3 gusting 6 12.8
2019-Nov-19 23:10 114 4 gusting 6 13.3
2019-Nov-19 23:05 119 4 gusting 6 13.3
2019-Nov-19 22:55 097 4 gusting 7 13.9
2019-Nov-19 22:50 131 3 gusting 7 13.9
2019-Nov-19 22:45 109 4 gusting 6 13.9
2019-Nov-19 22:40 108 3 gusting 6 13.9
2019-Nov-19 22:35 107 4 gusting 6 14.4
2019-Nov-19 22:25 110 2 gusting 5 15.0
2019-Nov-19 22:20 110 2 gusting 6 15.0
2019-Nov-19 22:15 132 4 gusting 9 15.6
2019-Nov-19 22:10 101 5 gusting 11 15.6
2019-Nov-19 22:05 121 5 gusting 11 15.6
2019-Nov-19 21:55 126 6 gusting 11 16.1
2019-Nov-19 21:50 125 6 gusting 11 16.1
2019-Nov-19 21:40 149 5 gusting 11 16.7
2019-Nov-19 21:35 112 5 gusting 13 16.7
2019-Nov-19 21:30 122 5 gusting 13 16.7
2019-Nov-19 21:25 139 6 gusting 14 16.7
2019-Nov-19 21:20 113 8 gusting 14 16.7
2019-Nov-19 21:10 116 7 gusting 13 16.7
2019-Nov-19 21:05 109 6 gusting 17 16.7
2019-Nov-19 21:00 157 11 gusting 17 16.7
2019-Nov-19 20:55 154 10 gusting 14 17.2
2019-Nov-19 20:50 107 8 gusting 15 17.2
2019-Nov-19 20:45 131 7 gusting 15 17.2
2019-Nov-19 20:40 166 8 gusting 17 17.2
2019-Nov-19 20:35 153 10 gusting 17 17.2
2019-Nov-19 20:30 137 7 gusting 13 17.2
2019-Nov-19 20:25 172 7 gusting 13 17.2
2019-Nov-19 20:20 177 6 gusting 13 17.2
2019-Nov-19 20:15 124 6 gusting 20 16.7
2019-Nov-19 20:10 146 11 gusting 21 16.7
2019-Nov-19 20:01 166 6 gusting 17 16.7
2019-Nov-19 19:56 178 12 gusting 17 16.7
2019-Nov-19 19:50 164 6 gusting 19 16.7
2019-Nov-19 19:46 094 10 gusting 19 16.7
2019-Nov-19 19:41 133 7 gusting 18 16.7
2019-Nov-19 19:35 103 8 gusting 18 16.7
2019-Nov-19 19:33 148 7 gusting 20 16.7
2019-Nov-19 19:25 123 9 gusting 20 16.7
2019-Nov-19 19:20 145 9 gusting 17 16.1
2019-Nov-19 19:16 120 11 gusting 17 16.1
2019-Nov-19 19:10 103 11 gusting 16 16.7
2019-Nov-19 19:06 132 9 gusting 14 16.7
2019-Nov-19 19:01 132 6 gusting 13 16.1
2019-Nov-19 18:55 112 5 gusting 21 16.1
2019-Nov-19 18:50 134 11 gusting 21 15.6
2019-Nov-19 18:47 116 14 gusting 22 16.1
2019-Nov-19 18:40 159 9 gusting 21 15.6
2019-Nov-19 18:35 102 12 gusting 18 15.6
2019-Nov-19 18:32 160 7 gusting 16 15.6
2019-Nov-19 18:25 153 10 gusting 16 15.6
2019-Nov-19 18:20 107 9 gusting 17 15.6
2019-Nov-19 18:16 119 7 gusting 18 15.6
2019-Nov-19 18:10 141 9 gusting 18 15.6
2019-Nov-19 18:05 148 7 gusting 13 15.6
2019-Nov-19 18:01 147 4 gusting 12 15.6
2019-Nov-19 17:55 043 2 gusting 15 15.0
2019-Nov-19 17:50 132 8 gusting 15 15.0
2019-Nov-19 17:46 146 7 gusting 14 15.0
2019-Nov-19 17:40 132 9 gusting 14 15.0
2019-Nov-19 17:35 102 5 gusting 14 15.0
2019-Nov-19 17:31 101 7 gusting 13 14.4
2019-Nov-19 17:20 144 11 gusting 17 14.4
2019-Nov-19 17:16 113 7 gusting 15 14.4
2019-Nov-19 17:10 097 9 gusting 15 14.4
2019-Nov-19 17:05 091 5 gusting 13 14.4
2019-Nov-19 17:01 093 6 gusting 16 14.4
2019-Nov-19 16:55 137 7 gusting 16 13.9
2019-Nov-19 16:50 072 10 gusting 19 13.9
2019-Nov-19 16:46 103 10 gusting 19 13.9
2019-Nov-19 16:40 137 9 gusting 19 13.9
2019-Nov-19 16:35 130 9 gusting 19 13.9
2019-Nov-19 16:31 190 6 gusting 17 13.9
2019-Nov-19 16:25 146 6 gusting 17 13.9
2019-Nov-19 16:20 110 6 gusting 19 13.9
2019-Nov-19 16:15 144 13 gusting 19 13.9
2019-Nov-19 16:10 141 9 gusting 17 13.9
2019-Nov-19 16:05 117 10 gusting 16 13.9
2019-Nov-19 16:00 108 4 gusting 13 13.9
2019-Nov-19 15:55 147 7 gusting 13 13.9
2019-Nov-19 15:50 139 4 gusting 13 13.9
2019-Nov-19 15:46 118 6 gusting 11 13.3
2019-Nov-19 15:40 149 3 gusting 14 13.3
2019-Nov-19 15:35 127 8 gusting 14 13.3
2019-Nov-19 15:30 118 8 gusting 13 13.3
2019-Nov-19 15:25 124 6 gusting 11 13.3
2019-Nov-19 15:20 164 2 gusting 12 13.3
2019-Nov-19 15:15 146 6 gusting 12 12.8
2019-Nov-19 15:10 118 4 gusting 9 12.8
2019-Nov-19 15:05 145 6 gusting 10 12.2
2019-Nov-19 15:00 121 6 gusting 9 12.8
2019-Nov-19 14:55 122 5 gusting 11 12.2
2019-Nov-19 14:50 109 5 gusting 10 12.2
2019-Nov-19 14:40 122 3 gusting 8 11.7
2019-Nov-19 14:35 077 4 gusting 9 11.7
2019-Nov-19 14:20 128 6 gusting 10 11.1
2019-Nov-19 14:10 157 2 gusting 9 10.6
2019-Nov-19 14:05 140 6 gusting 9 10.6
2019-Nov-19 13:55 135 6 gusting 9 10.0
2019-Nov-19 13:50 114 5 gusting 8 10.0
2019-Nov-19 13:40 134 2 gusting 7 9.4
2019-Nov-19 13:35 119 3 gusting 7 9.4
2019-Nov-19 13:25 107 6 gusting 10 8.9
2019-Nov-19 13:20 126 5 gusting 9 8.9
2019-Nov-19 13:15 127 4 gusting 7 8.9
2019-Nov-19 13:10 116 5 gusting 7 8.3
2019-Nov-19 13:05 072 5 gusting 7 8.3
2019-Nov-19 13:00 124 4 gusting 7 8.3
2019-Nov-19 12:55 115 4 gusting 7 7.8
2019-Nov-19 12:50 116 4 gusting 7 7.8
2019-Nov-19 12:45 115 2 gusting 6 7.8
2019-Nov-19 12:36 102 2 gusting 6 7.8
2019-Nov-19 12:31 114 3 gusting 6 7.8
2019-Nov-19 12:25 099 3 gusting 6 7.2
2019-Nov-19 12:21 110 3 gusting 6 7.2
2019-Nov-19 12:16 118 4 gusting 6 7.2
2019-Nov-19 12:10 114 3 gusting 6 7.2
2019-Nov-19 12:06 122 3 gusting 6 7.2
2019-Nov-19 12:02 133 3 gusting 6 7.2
2019-Nov-19 11:55 129 5 gusting 6 7.2
2019-Nov-19 11:50 118 4 gusting 6 7.2
2019-Nov-19 11:46 105 4 gusting 6 7.2
2019-Nov-19 11:41 107 5 gusting 6 7.2
2019-Nov-19 11:36 123 4 gusting 6 7.2
2019-Nov-19 11:33 112 4 gusting 6 7.2
2019-Nov-19 11:25 118 4 gusting 6 7.2
2019-Nov-19 11:20 106 3 gusting 6 7.2
2019-Nov-19 11:16 116 4 gusting 6 7.8
2019-Nov-19 11:10 111 5 gusting 6 7.8
2019-Nov-19 11:05 093 4 gusting 6 7.8
2019-Nov-19 11:02 115 4 gusting 6 7.8
2019-Nov-19 10:55 111 4 gusting 6 7.8
2019-Nov-19 10:50 112 4 gusting 6 7.8
2019-Nov-19 10:47 115 4 gusting 6 7.8
2019-Nov-19 10:40 103 4 gusting 6 7.8
2019-Nov-19 10:35 099 3 gusting 6 7.8
2019-Nov-19 10:31 107 4 gusting 6 7.8
2019-Nov-19 10:25 114 4 gusting 6 8.3
2019-Nov-19 10:20 112 4 gusting 6 8.3
2019-Nov-19 10:15 116 3 gusting 7 8.3
2019-Nov-19 10:10 114 3 gusting 7 8.3
2019-Nov-19 10:05 120 4 gusting 7 8.3
2019-Nov-19 10:01 112 5 gusting 7 8.3
2019-Nov-19 09:55 091 4 gusting 7 8.3
2019-Nov-19 09:50 112 4 gusting 8 8.3
2019-Nov-19 09:45 103 5 gusting 8 8.3
2019-Nov-19 09:40 089 6 gusting 7 8.3
2019-Nov-19 09:35 093 5 gusting 7 8.9
2019-Nov-19 09:31 093 5 gusting 7 8.9
2019-Nov-19 09:25 103 3 gusting 6 8.9
2019-Nov-19 09:20 099 3 gusting 6 8.9
2019-Nov-19 09:15 088 3 gusting 6 8.9
2019-Nov-19 09:10 105 3 gusting 6 8.9
2019-Nov-19 09:05 085 2 gusting 6 8.9
2019-Nov-19 09:00 102 2 gusting 7 8.9
2019-Nov-19 08:55 094 4 gusting 7 8.9
2019-Nov-19 08:50 095 4 gusting 6 9.4
2019-Nov-19 08:46 088 3 gusting 6 9.4
2019-Nov-19 08:40 107 4 gusting 6 9.4
2019-Nov-19 08:35 085 4 gusting 7 9.4
2019-Nov-19 08:30 090 5 gusting 7 9.4
2019-Nov-19 08:25 094 5 gusting 7 9.4
2019-Nov-19 08:20 080 4 gusting 6 9.4
2019-Nov-19 08:16 100 3 gusting 6 10.0
2019-Nov-19 08:10 094 3 gusting 6 10.0
2019-Nov-19 08:05 088 3 gusting 6 10.0
2019-Nov-19 08:00 110 4 gusting 6 10.6
2019-Nov-19 07:55 097 5 gusting 6 10.6
2019-Nov-19 07:50 107 4 gusting 6 10.6
2019-Nov-19 07:45 087 4 gusting 6 10.6
2019-Nov-19 07:40 094 3 gusting 6 10.6
2019-Nov-19 07:35 081 3 gusting 6 10.6
2019-Nov-19 07:25 097 3 gusting 6 11.1
2019-Nov-19 07:15 089 4 gusting 6 11.1
2019-Nov-19 07:10 087 3 gusting 5 11.1
2019-Nov-19 07:05 093 2 gusting 5 11.1
2019-Nov-19 06:55 082 3 gusting 4 11.7
2019-Nov-19 06:50 087 3 gusting 4 11.7
2019-Nov-19 06:40 107 3 gusting 5 11.7
2019-Nov-19 06:35 118 2 gusting 6 11.7
2019-Nov-19 06:30 116 3 gusting 6 11.7
2019-Nov-19 06:25 117 2 gusting 6 11.7
2019-Nov-19 06:20 116 3 gusting 6 11.7
2019-Nov-19 06:15 107 3 gusting 5 11.7
2019-Nov-19 06:10 110 3 gusting 6 11.7
2019-Nov-19 06:05 099 4 gusting 6 11.7
2019-Nov-19 06:00 112 3 gusting 6 11.7
2019-Nov-19 05:55 107 4 gusting 6 11.7
2019-Nov-19 05:50 114 4 gusting 6 11.7
2019-Nov-19 05:45 110 3 gusting 6 11.7
2019-Nov-19 05:40 102 4 gusting 6 11.7
2019-Nov-19 05:32 107 3 gusting 6 11.7
2019-Nov-19 05:26 102 2 gusting 4 11.7
2019-Nov-19 05:21 097 3 gusting 4 11.7
2019-Nov-19 05:17 093 2 gusting 4 11.7
2019-Nov-19 05:10 089 2 gusting 5 11.7
2019-Nov-19 05:05 086 3 gusting 4 11.7
2019-Nov-19 05:02 085 2 gusting 4 12.2